Temp
53 53 54 54 54 54 52 43 36 45 51 39 39 33 37 42 41 44 41 42 43 38 42 39 41 39 42 46 45 39 40 36 31 36 44 47 42 37 34 23 21 23 21 27
52 52 53 54 54 53 46 40 34 44 47 33 32 37 37 39 38 38 38 38 43 45 42 34 42 40 45 46 43 39 40 30 26 30 37 40 36 37 37 33 29 22 16 26
52 52 53 54 54 53 42 35 30 32 35 35 37 34 34 34 41 39 40 38 43 41 37 40 37 38 42 45 44 46 44 34 32 29 32 35 31 34 36 32 18 25 25 28
51 52 53 53 54 53 41 35 31 35 30 30 36 38 36 33 33 38 40 35 37 36 31 33 33 37 39 43 44 41 39 31 33 34 34 33 31 31 32 29 31 25 29 29
51 52 52 53 53 51 39 32 32 36 38 37 35 35 33 34 34 35 34 34 37 37 31 34 30 34 36 35 39 37 37 28 31 29 33 32 29 31 32 32 32 31 32 30
52 52 52 53 50 48 36 40 43 40 35 34 34 32 34 34 38 39 41 40 37 35 37 40 40 40 39 38 35 33 32 29 27 22 29 27 18 29 30 30 33 32 26 34
51 50 49 48 48 48 44 44 42 36 31 34 33 35 36 35 37 34 41 42 36 40 46 44 42 40 40 38 37 37 31 29 25 17 24 3 27 35 35 32 34 35 35 36
49 49 49 49 50 51 45 42 41 36 31 34 34 35 35 37 40 38 39 41 44 46 40 30 28 27 30 33 36 34 35 29 19 9 15 23 28 31 31 28 27 35 33 36
48 48 49 49 49 50 43 40 41 39 34 31 36 33 35 31 30 31 35 41 43 39 30 26 21 19 26 26 30 36 33 31 22 15 7 7 26 34 38 35 22 35 36 35
49 49 50 50 51 50 45 40 45 43 34 37 38 30 31 38 34 30 34 35 35 37 25 23 21 22 30 22 25 25 24 20 18 18 13 22 32 35 38 21 23 36 36 35
49 50 50 50 51 51 46 41 45 41 34 36 44 43 37 34 33 29 33 31 29 24 18 21 21 23 26 25 28 27 24 15 12 14 8 13 34 34 28 32 36 37 37 37
49 49 49 49 50 49 52 40 43 45 37 35 43 43 44 45 41 35 29 29 28 25 20 20 21 20 19 24 18 30 19 25 21 19 18 30 35 35 38 39 35 37 37 39
48 48 48 48 49 48 47 38 37 38 35 37 37 37 43 46 43 43 29 31 34 30 30 22 21 22 23 16 20 25 29 32 23 25 30 32 35 37 39 41 40 41 42 41
48 48 48 48 48 48 46 37 37 35 31 26 31 44 40 44 44 41 40 35 34 32 30 21 20 21 27 21 25 23 27 30 27 26 31 34 36 38 39 41 40 39 41 41
47 47 48 47 47 46 43 41 39 38 34 26 27 37 41 43 42 39 39 37 32 27 24 21 19 25 24 24 25 22 28 27 22 21 32 31 33 37 39 37 40 41 40 39
47 47 46 46 46 43 35 26 36 40 35 28 21 31 36 39 39 38 35 34 29 27 25 23 26 30 26 18 19 28 31 33 35 31 36 35 36 37 40 38 39 39 38 38
46 47 47 47 45 38 30 28 35 41 35 25 20 22 33 38 36 32 32 32 29 29 27 25 25 26 27 20 21 29 33 35 36 37 36 33 34 32 37 38 39 40 39 39
46 46 45 45 45 41 33 35 42 38 30 29 19 19 25 35 25 24 29 26 27 27 26 25 25 26 27 21 29 34 37 37 37 36 37 37 37 36 36 40 39 37 37 39
46 45 44 37 33 27 31 44 40 34 30 20 20 18 13 31 26 28 26 27 17 27 19 25 26 25 22 29 30 32 34 35 35 35 35 34 32 33 33 34 36 35 35 35
44 38 28 22 30 44 40 30 22 23 24 24 20 24 18 26 24 19 20 19 22 18 25 28 25 24 32 32 34 34 34 35 34 29 28 30 30 33 34 34 36 36 35 35
34 32 31 33 41 32 25 15 19 21 21 23 23 26 24 28 22 22 24 22 25 19 24 23 23 22 29 36 33 34 34 34 33 33 32 33 33 32 32 32 33 34 35 32
34 33 37 34 33 21 18 17 25 24 23 22 22 23 26 26 30 22 24 24 23 21 27 22 18 25 34 35 30 31 31 31 31 31 30 30 31 31 31 31 32 32 31 30
34 29 24 22 25 13 18 13 20 17 24 24 29 28 27 30 31 28 22 18 17 25 10 17 23 29 31 32 34 34 32 33 31 32 34 32 32 32 31 30 31 31 30 31
27 22 12 15 13 20 23 23 25 27 28 24 27 30 29 30 24 25 20 24 22 11 11 19 27 31 30 31 31 29 29 31 31 31 31 30 30 30 30 29 30 29 28 30
26 24 10 18 24 23 26 24 26 28 26 23 21 29 30 28 26 26 25 19 14 17 15 26 29 30 29 30 30 31 30 29 29 30 29 28 28 28 28 29 30 29 28 28
24 27 23 19 19 14 17 23 22 28 27 24 24 25 26 25 26 25 20 22 16 21 23 31 31 29 31 30 30 30 30 30 30 30 29 29 28 28 28 29 29 29 26 26
26 22 20 20 20 19 19 23 24 30 24 20 25 22 22 23 23 23 26 20 26 28 29 30 29 31 30 30 30 30 30 29 29 29 28 28 29 28 25 24 26 25 28 25
MSLP
990.47 991.58 992.67 993.73 994.67 995.40 996.01 997.06 999.17 1000.42 1000.51 1001.44 1001.00 1001.86 1004.13 1004.67 1004.71 1005.82 1005.64 1005.92 1005.75 1005.71 1005.88 1006.46 1006.87 1006.56 1006.63 1006.57 1006.81 1007.73 1008.34 1009.22 1010.34 1010.54 1010.13 1010.13 1010.54 1011.30 1012.27 1013.63 1015.05 1015.48 1015.05 1011.11
988.79 990.28 991.43 992.49 993.62 994.53 995.01 996.49 999.81 1000.15 1000.13 1000.06 1001.45 1001.65 1003.51 1003.54 1004.32 1005.52 1005.96 1006.22 1006.28 1005.77 1005.80 1006.75 1006.63 1007.11 1007.01 1007.23 1007.77 1008.12 1008.46 1009.85 1011.39 1011.84 1011.58 1011.21 1011.65 1012.24 1012.97 1013.97 1015.01 1015.54 1015.41 1010.96
987.63 988.99 990.22 991.37 992.34 993.43 994.46 996.70 999.28 1000.65 1000.84 1000.20 1000.92 1001.72 1003.06 1003.23 1003.72 1005.03 1005.92 1006.13 1006.31 1006.41 1006.73 1007.26 1007.55 1008.02 1008.38 1008.17 1008.39 1008.48 1008.89 1010.21 1010.70 1011.20 1011.32 1011.66 1012.44 1012.84 1013.35 1014.24 1015.34 1015.36 1013.67 1013.31
986.77 988.00 989.18 990.29 991.12 992.00 992.81 995.49 997.03 996.94 999.65 1000.12 1000.12 1001.17 1002.23 1002.89 1002.95 1004.45 1005.28 1006.07 1005.77 1006.27 1007.11 1007.82 1008.19 1008.66 1009.25 1009.33 1009.43 1009.65 1009.81 1010.86 1011.73 1012.15 1012.58 1012.84 1013.02 1013.15 1013.42 1013.87 1014.45 1014.73 1012.96 1013.64
985.46 986.83 988.00 988.94 989.89 991.14 992.41 994.03 995.06 997.06 997.63 998.57 999.93 1001.34 1001.75 1001.88 1002.91 1002.68 1004.20 1004.78 1005.80 1006.41 1006.67 1007.08 1008.29 1008.81 1009.09 1009.56 1010.11 1010.63 1011.00 1012.02 1012.74 1013.49 1013.57 1013.69 1013.70 1013.46 1013.47 1013.68 1013.56 1013.50 1013.23 1011.79
984.94 986.08 986.89 988.03 988.95 990.16 990.62 992.20 993.18 993.83 996.95 998.27 999.80 1000.84 1001.09 1001.76 1001.70 1003.43 1003.66 1004.17 1005.40 1006.76 1007.23 1007.79 1008.51 1009.00 1009.86 1010.07 1010.46 1011.35 1012.02 1012.65 1013.72 1014.54 1014.79 1014.80 1013.63 1012.49 1012.57 1012.76 1012.64 1012.72 1012.52 1011.56
985.11 986.10 987.18 987.59 988.11 989.23 989.96 991.38 991.78 993.86 997.06 998.90 999.59 1000.38 1000.56 1001.78 1001.92 1002.73 1004.01 1004.60 1005.74 1006.79 1007.26 1008.22 1009.06 1010.06 1010.63 1010.84 1010.85 1011.57 1012.55 1013.20 1014.60 1015.73 1016.18 1015.60 1013.19 1012.45 1012.25 1012.37 1012.11 1012.12 1011.93 1011.38
985.79 986.30 987.18 987.67 988.60 989.32 990.34 991.73 991.74 994.74 997.20 998.66 999.76 1000.48 1001.29 1002.39 1002.70 1003.68 1004.23 1004.96 1006.00 1006.55 1007.63 1009.76 1010.82 1011.88 1011.81 1011.42 1011.16 1011.95 1012.82 1013.92 1015.37 1016.78 1016.58 1014.60 1012.67 1012.08 1011.88 1011.91 1011.77 1011.37 1011.52 1011.47
987.61 987.67 988.25 989.21 989.63 990.44 991.28 992.72 992.78 993.41 995.73 999.04 998.98 1000.18 1002.13 1002.72 1003.49 1004.99 1005.83 1006.30 1006.65 1007.53 1009.12 1010.47 1011.51 1011.18 1012.12 1011.95 1011.87 1011.79 1012.94 1013.93 1015.32 1016.58 1016.87 1015.21 1012.83 1011.42 1011.20 1011.94 1011.44 1011.01 1010.95 1010.88
989.28 989.44 989.87 990.18 990.58 991.22 992.10 993.80 992.90 993.59 996.61 999.20 998.83 1000.93 1002.20 1003.05 1003.74 1005.01 1005.98 1007.13 1008.00 1008.45 1010.25 1011.47 1011.99 1012.39 1012.54 1012.41 1012.09 1012.82 1013.72 1014.55 1015.40 1015.88 1015.62 1013.92 1012.25 1011.72 1011.31 1011.75 1011.46 1010.39 1010.27 1010.20
990.89 991.08 991.26 991.65 991.79 992.47 992.87 994.54 993.61 993.55 995.27 999.52 1000.39 1001.14 1002.47 1003.19 1002.68 1004.71 1007.03 1007.89 1008.81 1010.21 1011.36 1012.31 1012.95 1012.77 1012.62 1012.65 1012.34 1012.63 1013.28 1014.38 1015.03 1015.50 1015.02 1013.65 1012.11 1011.41 1011.57 1011.03 1010.42 1010.50 1010.18 1009.88
992.42 992.67 992.75 992.64 992.59 992.68 992.45 994.45 995.37 995.22 997.69 1001.48 1001.46 1002.26 1002.10 1001.42 1002.46 1004.55 1006.89 1007.60 1008.89 1009.92 1011.26 1012.60 1012.91 1013.24 1013.42 1013.05 1012.96 1012.79 1013.22 1013.04 1013.55 1013.70 1012.77 1011.78 1011.24 1010.67 1010.50 1010.21 1010.36 1009.89 1009.57 1009.12
994.60 994.45 994.17 994.25 994.42 994.70 995.01 996.90 997.74 997.64 999.90 1001.86 1002.05 1002.78 1002.65 1002.19 1003.30 1004.08 1006.21 1007.94 1008.76 1009.59 1009.99 1011.89 1013.05 1013.18 1013.38 1013.36 1013.04 1012.80 1012.63 1012.37 1012.71 1012.80 1011.57 1011.07 1010.56 1010.30 1009.85 1009.73 1009.47 1008.92 1008.53 1008.52
996.62 996.49 996.37 996.49 996.50 996.61 996.90 998.58 999.01 999.16 1000.79 1003.01 1004.48 1003.73 1003.77 1004.04 1003.98 1004.52 1005.41 1007.14 1008.16 1009.45 1010.45 1012.21 1013.22 1013.58 1013.03 1013.09 1012.58 1012.62 1012.05 1011.93 1011.96 1011.68 1010.99 1010.75 1009.96 1009.49 1009.25 1008.99 1008.72 1008.47 1008.04 1008.02
998.40 998.35 998.26 998.19 998.19 998.12 998.30 999.00 1000.10 1000.20 1001.09 1003.96 1004.95 1005.10 1005.49 1005.23 1005.35 1006.03 1006.56 1007.34 1008.54 1010.30 1012.00 1012.73 1013.32 1013.25 1013.25 1013.03 1012.86 1011.82 1011.39 1010.99 1011.34 1010.44 1010.03 1009.89 1009.37 1008.95 1008.63 1008.53 1008.38 1008.15 1007.95 1007.51
999.97 999.66 999.50 999.28 999.18 999.12 999.56 1000.78 1001.18 1001.59 1001.94 1004.03 1006.51 1007.27 1006.70 1006.60 1006.58 1007.19 1007.81 1008.27 1009.29 1010.47 1011.53 1012.60 1012.70 1012.45 1012.71 1013.15 1012.36 1010.33 1009.81 1009.38 1009.27 1009.23 1008.77 1008.93 1008.81 1008.46 1008.06 1007.96 1007.66 1007.58 1007.48 1007.27
1001.14 1001.11 1001.01 1000.74 1000.41 1000.08 1001.92 1003.52 1003.58 1002.83 1003.11 1005.31 1007.29 1007.69 1007.39 1007.09 1007.65 1008.45 1008.93 1009.14 1009.82 1010.44 1011.57 1012.23 1012.42 1012.37 1012.45 1012.32 1010.81 1008.66 1008.87 1008.54 1008.35 1008.38 1008.63 1008.51 1008.26 1008.18 1007.72 1007.55 1007.27 1007.12 1007.07 1006.87
1002.29 1002.06 1001.77 1001.50 1001.39 1001.89 1003.02 1003.71 1003.41 1003.26 1004.38 1005.85 1007.79 1008.61 1008.19 1007.75 1008.76 1009.47 1009.66 1010.17 1010.51 1010.85 1011.08 1011.79 1011.85 1011.97 1011.55 1010.69 1008.41 1007.95 1008.20 1008.00 1007.46 1007.45 1007.56 1007.62 1007.66 1007.63 1007.45 1007.32 1007.32 1007.17 1006.98 1006.76
1003.06 1002.69 1002.41 1002.27 1003.10 1004.19 1004.75 1004.09 1003.91 1004.06 1005.41 1007.14 1008.36 1009.04 1009.20 1008.76 1009.56 1009.88 1010.40 1010.41 1011.10 1010.98 1010.95 1011.04 1010.99 1010.81 1010.01 1007.95 1007.77 1007.82 1007.54 1007.33 1007.03 1006.95 1007.16 1007.36 1007.49 1007.38 1007.27 1007.29 1007.10 1006.99 1006.80 1006.66
1003.60 1003.56 1004.14 1005.10 1005.45 1005.19 1005.16 1005.36 1005.45 1006.14 1007.24 1008.30 1009.23 1009.58 1009.72 1009.66 1009.72 1010.22 1010.48 1010.70 1011.15 1011.10 1010.67 1010.52 1010.14 1009.03 1007.52 1007.20 1006.95 1006.82 1006.75 1006.67 1006.74 1006.98 1007.06 1007.22 1007.40 1007.46 1007.28 1007.16 1007.07 1006.90 1006.70 1006.55
1004.95 1005.46 1006.05 1006.15 1005.81 1006.04 1006.41 1007.25 1007.68 1008.18 1008.87 1009.17 1009.48 1009.40 1009.40 1009.21 1009.32 1010.00 1010.47 1010.85 1010.82 1010.54 1009.91 1009.80 1009.45 1008.39 1006.86 1006.39 1006.57 1006.52 1006.49 1006.73 1007.10 1007.42 1007.64 1007.63 1007.65 1007.58 1007.46 1007.28 1007.11 1006.81 1006.53 1006.53
1005.93 1006.05 1006.21 1006.31 1006.30 1006.81 1007.30 1008.28 1008.28 1008.31 1008.81 1009.01 1008.96 1008.79 1008.83 1009.19 1009.34 1009.96 1010.45 1010.42 1010.41 1009.87 1009.49 1009.58 1008.78 1007.29 1006.37 1006.44 1006.62 1007.11 1007.41 1007.73 1007.91 1008.00 1007.95 1007.87 1007.79 1007.67 1007.51 1007.28 1007.00 1006.79 1006.67 1006.54
1005.93 1006.22 1006.78 1007.23 1007.52 1008.05 1008.10 1008.56 1008.38 1008.32 1008.33 1008.50 1008.48 1008.61 1008.82 1009.05 1009.18 1009.52 1009.99 1010.31 1010.04 1009.67 1009.75 1009.15 1007.97 1007.22 1007.11 1007.11 1007.11 1007.60 1007.94 1008.01 1008.09 1008.09 1007.97 1007.95 1007.80 1007.64 1007.47 1007.16 1006.86 1006.65 1006.50 1006.22
1006.76 1007.36 1008.12 1008.34 1008.49 1008.36 1008.06 1007.92 1007.72 1007.66 1007.80 1008.23 1008.38 1008.45 1008.57 1008.73 1009.10 1009.31 1009.66 1009.64 1009.64 1009.84 1009.48 1008.71 1008.17 1007.74 1007.72 1007.68 1008.10 1008.30 1008.31 1008.25 1008.25 1008.23 1008.13 1008.01 1007.82 1007.56 1007.29 1007.02 1006.72 1006.49 1006.23 1005.80
1007.53 1007.95 1008.63 1008.69 1008.56 1008.47 1007.97 1007.81 1007.69 1007.56 1007.68 1007.98 1008.55 1008.27 1008.38 1008.44 1008.65 1008.81 1008.90 1009.24 1009.09 1008.80 1008.45 1008.13 1008.14 1008.08 1008.05 1008.04 1008.14 1008.32 1008.39 1008.44 1008.32 1008.15 1008.05 1007.87 1007.70 1007.46 1007.11 1006.74 1006.48 1006.16 1005.92 1005.65
1008.04 1008.32 1008.75 1008.85 1009.08 1009.15 1008.60 1008.22 1007.91 1007.53 1007.73 1008.06 1008.10 1008.24 1008.17 1008.04 1007.99 1008.02 1008.11 1008.28 1008.06 1008.15 1008.01 1007.90 1007.96 1007.97 1008.01 1008.13 1008.24 1008.41 1008.45 1008.32 1008.18 1008.05 1007.90 1007.70 1007.50 1007.23 1006.89 1006.53 1006.26 1006.01 1005.82 1005.48
1008.47 1008.59 1008.42 1008.76 1008.85 1008.79 1008.57 1007.94 1007.54 1007.36 1007.66 1008.04 1008.15 1008.16 1007.84 1007.70 1007.54 1007.43 1007.39 1007.41 1007.48 1007.58 1007.82 1007.99 1007.91 1007.88 1007.92 1008.11 1008.20 1008.25 1008.24 1008.24 1008.13 1007.97 1007.75 1007.52 1007.20 1006.92 1006.74 1006.51 1006.22 1005.96 1005.62 1005.44
Wind_Speed
35 33 33 29 23 20 27 8 7 9 15 12 6 11 11 6 13 4 2 2 11 13 16 15 17 10 2 1 6 7 2 4 5 1 3 4 1 4 4 6 5 2 3 13
35 33 33 30 25 37 7 11 4 0 9 12 9 9 9 7 12 10 9 11 11 6 13 8 12 2 5 2 3 7 6 1 4 2 3 2 3 3 5 5 3 5 6 13
34 32 33 31 27 41 8 6 6 3 3 2 12 10 8 9 11 10 8 6 6 7 9 1 10 10 4 2 2 8 6 4 3 7 4 4 4 5 5 5 4 3 12 13
33 33 33 32 31 38 7 4 5 6 13 8 15 12 8 15 11 7 12 4 9 11 7 5 5 6 5 4 4 5 4 4 3 4 4 2 3 4 6 7 7 8 17 13
32 32 32 32 36 29 4 8 8 5 15 18 15 7 13 21 7 10 12 10 14 7 6 4 8 8 2 3 3 3 3 3 3 3 3 5 9 8 10 11 12 12 16 25
30 30 29 26 32 14 5 4 5 7 12 15 14 7 8 17 13 5 12 17 17 11 6 7 6 7 5 5 6 3 5 5 4 2 4 6 11 11 14 6 8 8 11 16
22 22 26 23 18 7 6 8 6 7 10 12 8 18 22 18 6 14 18 14 10 9 15 12 10 9 5 4 3 4 5 5 3 4 4 3 4 1 6 10 9 10 11 11
31 32 32 29 24 21 12 0 6 5 10 11 18 24 19 16 14 13 13 5 12 13 10 5 5 2 2 4 6 7 5 4 4 5 5 9 7 7 6 6 8 8 7 6
29 29 27 26 23 21 8 4 3 8 14 2 19 18 14 12 10 8 7 11 7 9 4 4 2 5 3 3 3 2 5 4 5 4 5 7 4 3 3 4 6 7 7 7
29 28 25 24 23 19 8 2 1 11 14 10 14 6 8 7 7 9 7 5 4 5 3 3 3 3 3 4 5 6 4 2 8 6 4 7 3 4 3 5 6 5 3 6
29 28 27 24 23 22 9 4 5 8 11 7 10 7 8 4 4 11 7 5 3 3 5 4 4 3 4 2 1 3 5 6 4 2 2 9 1 4 2 3 7 6 5 8
30 29 27 28 25 21 16 11 6 7 11 6 7 6 2 7 7 11 4 4 4 4 6 1 3 3 2 5 3 2 2 6 5 9 9 7 5 8 10 11 11 13 6 11
30 29 29 29 26 24 15 6 4 6 10 9 7 8 8 10 8 4 7 1 5 3 3 4 2 3 3 4 4 4 3 4 3 2 5 7 9 7 10 12 15 10 12 12
27 26 26 26 27 29 22 7 4 6 5 7 3 2 6 3 9 8 6 8 7 6 4 4 3 3 3 3 2 4 6 4 4 5 11 11 15 13 9 12 9 9 9 9
24 22 20 18 19 20 15 10 8 5 7 5 3 3 8 5 9 11 11 11 8 4 3 3 2 1 2 1 0 5 6 7 5 8 10 8 9 6 8 8 11 11 7 6
21 22 21 18 12 8 6 8 6 8 4 7 4 3 4 5 8 9 8 5 5 4 4 3 1 2 4 2 4 6 7 6 11 9 7 7 10 10 15 17 14 7 6 7
18 18 18 22 24 11 7 4 4 7 4 6 4 3 4 4 4 3 3 3 3 4 3 2 4 4 5 3 6 4 6 8 9 9 10 11 9 7 5 6 7 8 7 7
16 15 15 15 15 9 7 6 10 4 6 5 4 1 5 5 2 3 2 3 3 1 3 2 3 1 3 5 10 9 14 14 10 9 9 8 4 6 6 5 6 8 8 7
14 12 11 7 8 5 3 10 10 5 6 4 4 4 3 3 1 2 2 2 2 0 2 3 4 3 7 11 7 7 9 6 5 3 4 4 5 6 5 6 7 7 7 7
10 7 6 5 3 4 6 7 6 7 5 5 3 1 1 3 0 2 3 2 2 1 4 3 3 5 11 8 9 7 6 6 3 2 4 3 4 6 7 6 7 8 9 9
4 4 2 3 5 3 3 3 4 2 4 2 2 2 3 3 4 2 2 3 2 2 3 4 3 4 4 3 5 5 5 4 7 3 5 5 4 6 6 6 7 8 8 6
2 3 1 2 2 3 6 2 1 3 2 1 3 2 2 1 2 3 0 2 1 3 3 2 3 5 2 3 4 7 7 6 6 5 5 5 5 5 6 7 7 6 6 8
3 3 4 4 3 8 4 2 2 2 2 3 2 3 3 2 1 1 3 1 4 2 3 4 4 2 4 6 7 4 5 5 4 8 9 7 7 6 6 8 7 7 8 9
3 3 5 4 3 1 2 3 3 3 3 3 3 3 2 2 2 2 3 4 2 3 0 4 3 3 4 5 5 4 6 6 6 6 7 7 7 7 8 7 7 7 8 9
3 3 1 2 2 2 2 1 2 0 3 3 3 2 3 3 3 3 2 1 3 5 4 2 1 2 2 2 2 4 5 4 5 5 5 6 7 7 8 7 7 7 6 7
2 1 2 2 3 4 2 1 1 2 3 2 3 2 1 3 3 5 6 4 5 3 3 1 1 2 2 2 1 2 4 5 5 6 6 6 6 6 7 7 6 5 5 7
1 3 1 3 2 4 4 3 3 3 4 2 2 4 6 1 3 4 3 4 3 2 1 2 2 2 3 3 2 4 4 5 5 5 5 5 6 5 4 5 7 7 7 4
Wind_Direction
220 217 214 211 200 191 160 146 170 180 163 177 187 157 172 165 166 185 151 230 196 196 193 186 206 203 136 81 149 138 133 114 140 130 9 36 100 137 132 139 229 247 146 261
212 212 210 208 193 174 147 143 113 91 207 171 190 131 146 147 144 167 171 188 185 208 186 174 215 188 12 127 105 156 168 136 112 33 341 44 122 104 108 99 93 197 161 263
207 206 207 207 201 183 108 113 134 67 319 88 170 146 164 140 149 147 161 151 165 145 153 141 173 167 7 48 100 97 104 146 167 202 128 127 160 173 131 135 122 193 239 306
201 202 204 202 196 181 113 132 165 149 176 176 163 163 154 149 141 153 157 145 185 163 136 157 159 120 133 36 50 37 82 149 113 96 112 157 178 195 180 183 188 214 278 257
192 199 201 196 188 172 120 137 142 162 148 134 138 164 164 161 131 140 165 155 163 136 123 157 149 145 130 158 55 75 25 124 110 167 195 239 254 217 215 219 240 250 259 276
191 195 193 207 169 165 114 157 134 116 139 147 154 180 149 155 123 123 151 141 137 140 122 101 84 75 93 139 128 121 135 135 114 191 71 350 298 219 215 196 237 220 237 253
160 139 126 118 125 121 117 139 107 88 129 160 155 145 133 141 110 134 137 131 112 122 113 86 58 49 62 125 147 121 138 117 100 152 70 290 241 58 154 204 234 240 255 262
92 92 97 96 95 103 109 38 85 115 120 130 130 136 130 106 99 111 109 90 123 117 79 79 102 11 5 244 220 187 156 121 122 140 195 293 280 212 173 179 259 238 231 253
80 80 84 94 93 92 79 30 226 113 119 115 123 108 130 122 113 96 108 77 69 80 82 106 138 147 179 204 162 271 140 133 133 129 164 235 214 204 136 106 273 177 197 246
70 70 73 81 89 92 92 55 335 90 106 116 112 111 132 141 113 107 98 122 77 56 105 102 123 169 175 205 176 155 134 92 199 197 214 274 291 316 126 178 244 209 218 262
61 62 60 65 72 82 86 81 37 125 83 55 121 116 138 121 89 128 169 87 354 60 77 118 172 151 184 161 191 176 162 156 186 101 158 254 107 12 219 267 304 280 262 256
60 59 55 54 53 60 75 64 23 68 83 121 74 77 57 116 135 122 33 136 126 161 98 120 112 127 118 159 197 169 235 189 189 170 212 219 198 188 232 263 257 268 253 264
59 57 56 53 54 62 80 77 358 59 89 66 53 44 14 52 77 125 115 67 143 81 127 142 129 124 138 159 215 192 250 192 197 107 259 244 252 240 239 262 267 260 262 250
56 57 58 61 63 65 65 64 323 74 94 89 10 350 38 25 66 66 93 123 72 95 65 84 116 144 169 201 215 192 196 156 197 254 278 274 253 248 247 258 261 267 266 250
52 49 51 54 55 60 70 65 39 38 106 126 85 10 7 82 89 85 95 104 97 87 71 80 158 165 103 246 314 233 176 202 185 235 238 228 259 252 270 271 281 274 276 288
51 50 50 39 45 55 51 37 356 15 42 92 81 274 28 65 93 102 102 92 86 95 124 160 198 265 123 170 241 233 207 207 216 239 245 234 260 262 273 264 266 254 270 267
48 56 60 58 58 65 64 130 245 339 56 82 70 29 356 30 78 45 73 44 94 108 134 159 163 206 159 208 243 169 214 230 250 240 255 277 257 247 290 252 262 270 272 267
36 36 38 39 45 57 33 358 19 60 85 66 93 319 41 19 44 51 4 82 44 357 163 104 171 120 176 249 248 257 247 251 252 238 215 218 256 278 265 268 285 280 277 275
9 8 25 29 32 37 306 340 27 34 95 96 74 112 199 4 56 114 34 77 55 273 144 216 114 189 220 229 238 224 229 216 233 273 271 256 249 263 289 279 277 277 285 287
25 26 39 19 327 313 11 6 24 18 357 33 92 217 113 105 13 348 76 25 191 179 231 131 194 250 253 247 234 240 256 237 256 291 310 281 270 259 273 273 278 277 279 280
36 42 62 251 311 36 35 38 70 326 43 27 179 159 137 331 96 147 153 188 206 224 231 138 230 258 242 196 84 29 29 62 55 38 29 14 339 306 297 289 278 275 283 291
196 173 346 13 12 28 76 24 316 54 127 277 121 179 129 105 104 94 118 212 81 249 136 157 256 255 315 42 66 66 52 47 40 27 355 328 302 298 290 294 293 294 291 287
45 47 43 53 357 39 87 84 2 54 165 171 139 109 120 118 88 116 84 69 234 65 52 227 232 292 42 45 57 69 44 35 14 343 331 322 310 300 291 296 290 289 292 288
61 68 2 110 329 297 180 150 149 213 123 128 135 121 149 131 123 155 191 217 84 13 233 240 331 33 58 48 39 18 348 352 347 324 314 307 302 299 294 281 284 285 286 292
50 54 242 228 236 266 279 107 76 237 122 111 57 126 162 161 195 183 202 174 236 203 224 173 163 33 19 52 25 350 331 312 298 298 299 298 297 294 292 292 291 279 281 292
57 207 238 280 48 307 345 237 219 197 111 74 69 134 179 219 211 191 207 194 216 206 209 166 211 219 217 214 219 280 281 293 301 292 285 286 285 290 294 300 299 304 297 295
256 256 203 166 190 201 215 178 222 140 84 163 134 191 209 214 233 211 185 211 154 179 157 176 216 239 193 213 264 296 295 285 286 290 289 285 291 298 310 318 318 314 297 295